Home   Weather   Liverpool   Past weeks

Flag for United Kingdom Past Weather in Liverpool, England, United Kingdom — Yesterday and Last 2 Weeks

Now
45 °F

Fog.


Feels Like: 43 °F
Forecast: N/A
Wind: 3 mph from North

Location: Liverpool Airport

Current Time: Jan 23, 2017 at 3:04:27 pm

Latest Report: Jan 23, 2017 at 2:20 pm


Visibility: 3 mi

Pressure: 30.30 "Hg

Humidity: 87%

Dew Point: 41 °F

Location of LiverpoolLocation

Past Weather in Liverpool — Graph

°F

Liverpool Temperature Yesterday

Maximum temperature yesterday: 37 °F (at 12:20 am)
Minimum temperature yesterday: 34 °F (at 2:20 am)
Average temperature yesterday: 36 °F

High & Low Weather Summary for the Past Weeks

 TemperatureHumidityPressure
High54 °F (Jan 11, 3:50 am)100% (Jan 8, 1:20 pm)30.66 "Hg (Jan 8, 1:20 pm)
Low30 °F (Jan 21, 1:50 am)53% (Jan 13, 5:50 pm)29.45 "Hg (Jan 12, 4:50 pm)
Average43 °F87%30.20 "Hg
* Reported Jan 8 1:20 pm — Jan 23 1:50 pm, Liverpool, Weather by CustomWeather, © 2017

Note: Actual official high and low records may vary slightly from our data, if they occured in-between our weather recording intervals... More about our weather records

Advertising

Liverpool Weather History for the Previous 24 Hours

Scroll right to see more
 ConditionsComfort  
Time TempWeatherWind HumidityBarometerVisibility
1:50 pm
Mon, Jan 23
43 °FFog.5 mph93%30.30 "Hg3 mi
1:20 pm41 °FFog.6 mph100%30.30 "Hg3 mi
12:50 pm41 °FFog.5 mph100%30.33 "Hg3 mi
12:20 pm39 °FFog.6 mph100%30.33 "Hg2 mi
11:50 am39 °FFog.6 mph93%30.33 "Hg1 mi
11:20 am37 °FFog.5 mph93%30.36 "Hg1 mi
10:50 am37 °FFog.6 mph100%30.33 "Hg1 mi
10:20 am36 °FFog.5 mph100%30.36 "Hg1 mi
9:50 am36 °FFog.5 mph100%30.36 "Hg0 mi
9:20 am36 °FFog.5 mph100%30.36 "Hg0 mi
8:50 am34 °FFog.5 mph100%30.33 "Hg0 mi
8:20 am36 °FFog.2 mph93%30.33 "Hg0 mi
7:50 am36 °FFog.3 mph100%30.33 "Hg0 mi
7:20 am34 °FFog.8 mph100%30.33 "Hg0 mi
6:50 am32 °FFog.7 mph100%30.33 "Hg0 mi
6:20 am32 °FIce fog.8 mph100%30.33 "Hg0 mi
5:50 am32 °FFog.7 mph100%30.33 "Hg0 mi
5:20 am32 °FFog.9 mph100%30.33 "Hg0 mi
4:50 am34 °FFog.6 mph93%30.33 "Hg1 mi
4:20 am32 °FIce fog.8 mph100%30.30 "Hg1 mi
3:50 am32 °FFog.6 mph100%30.33 "Hg1 mi
3:20 am32 °FIce fog.7 mph93%30.33 "Hg1 mi
2:50 am32 °FFog.5 mph100%30.33 "Hg1 mi
2:20 am32 °FIce fog.5 mph93%30.33 "Hg1 mi
1:50 am32 °FIce fog.6 mph100%30.33 "Hg1 mi
1:20 am32 °FIce fog.5 mph100%30.33 "Hg1 mi
12:50 am34 °FFog.5 mph100%30.33 "Hg1 mi
12:20 am36 °FFog.3 mph93%30.33 "Hg1 mi
11:50 pm
Sun, Jan 22
36 °FFog.6 mph93%30.33 "Hg1 mi
11:20 pm36 °FFog.6 mph93%30.33 "Hg2 mi
10:50 pm36 °FFog.5 mph93%30.33 "Hg2 mi
10:20 pm36 °FFog.5 mph93%30.33 "Hg2 mi
9:50 pm37 °FFog.5 mph93%30.30 "Hg2 mi
9:20 pm36 °FFog.5 mph93%30.30 "Hg3 mi
8:50 pm37 °FHaze.5 mph87%30.30 "Hg3 mi
8:20 pm37 °FHaze.5 mph87%30.30 "Hg3 mi
7:50 pm37 °FHaze.2 mph87%30.30 "Hg3 mi
7:20 pm36 °FHaze.3 mph93%30.30 "Hg3 mi
6:50 pm37 °FHaze.3 mph93%30.30 "Hg3 mi
6:20 pm37 °FHaze.3 mph93%30.30 "Hg3 mi
5:50 pm37 °FPassing clouds.5 mph87%30.30 "Hg3 mi
5:20 pm37 °FPassing clouds.5 mph93%30.27 "Hg3 mi
4:50 pm37 °FPassing clouds.6 mph87%30.27 "Hg3 mi
4:20 pm37 °FPartly sunny.8 mph93%30.27 "Hg3 mi
3:50 pm37 °FBroken clouds.5 mph93%30.27 "Hg3 mi
3:20 pm37 °FMore clouds than sun.9 mph93%30.27 "Hg3 mi
Weather by CustomWeather, © 2017

See weather overviewHow to use our weather pages